FW9390 Weather Reports


Display with metric or nautical units.
time (UTC)temp
F
wind
direction
speed
MPH
gust
MPH
rain 1hr
in
rain 24hr
in
rain mn
in
humidity
%
barometer
mb
20260508050047 48 101 2.0 7.0 0.01 0.06 0.06 91 1014.3
20260508044600 49 54 3.0 9.0 0.00 0.05 0.05 91 1014.0
20260508043043 49 64 3.0 10.0 0.01 0.05 0.05 91 1014.1
20260508041549 49 63 4.0 8.0 0.01 0.05 0.05 91 1014.1
20260508040043 49 94 3.0 11.0 0.01 0.04 0.04 90 1014.1
20260508034544 50 111 4.0 10.0 0.01 0.04 0.04 89 1014.4
20260508033045 49 81 3.0 8.0 0.00 0.03 0.03 89 1014.2
20260508031555 49 45 4.0 9.0 0.01 0.03 0.03 89 1014.1
20260508030051 50 42 3.0 9.0 0.02 0.03 0.03 88 1014.3
20260508024540 49 101 2.0 6.0 0.03 0.03 0.03 86 1014.4
20260508023043 49 70 1.0 6.0 0.03 0.03 0.03 85 1014.5
20260508021543 50 89 2.0 12.0 0.01 0.01 0.01 85 1014.5
20260508020044 50 47 2.0 8.0 0.00 0.00 0.00 83 1014.5
20260508014543 51 82 2.0 7.0 0.00 0.00 0.00 79 1014.6
20260508013042 50 92 2.0 4.0 0.00 0.00 0.00 81 1014.6
20260508011539 50 103 3.0 7.0 0.00 0.00 0.00 82 1014.5
20260508010042 51 119 6.0 12.0 0.00 0.00 0.00 86 1014.7
20260508004539 52 116 3.0 10.0 0.00 0.00 0.00 89 1014.7
20260508003058 52 108 3.0 8.0 0.00 0.00 0.00 89 1014.7
20260508001544 52 94 2.0 6.0 0.00 0.00 0.00 89 1014.7
20260508000041 52 99 2.0 6.0 0.00 0.00 0.00 89 1014.6
20260507234541 52 86 2.0 4.0 0.00 0.00 0.00 88 1014.7
20260507233040 52 117 2.0 6.0 0.00 0.00 0.00 88 1014.8
20260507231547 52 109 1.0 4.0 0.00 0.00 0.00 88 1014.8
20260507230044 52 112 2.0 6.0 0.00 0.00 0.00 88 1014.9
20260507224557 51 121 3.0 8.0 0.00 0.00 0.00 89 1015.0
20260507223046 51 118 1.0 4.0 0.00 0.00 0.00 89 1014.9
20260507221541 51 115 0.0 3.0 0.00 0.00 0.00 89 1014.9
20260507220044 51 0 1.0 3.0 0.00 0.00 0.00 88 1014.8
20260507214542 51 118 2.0 4.0 0.00 0.00 0.00 86 1014.8
20260507213048 51 142 1.0 4.0 0.00 0.00 0.00 86 1015.0
20260507211542 51 142 1.0 3.0 0.00 0.00 0.00 87 1014.8
20260507210106 51 0 0.0 2.0 0.00 0.00 0.00 88 1014.9
20260507204538 51 146 0.0 4.0 0.00 0.00 0.00 88 1014.7
20260507203045 52 146 3.0 9.0 0.00 0.00 0.00 87 1014.7
20260507201544 52 0 1.0 4.0 0.00 0.00 0.00 85 1014.5
20260507200056 52 103 0.0 2.0 0.00 0.00 0.00 83 1014.3
20260507194542 51 0 0.0 2.0 0.00 0.00 0.00 83 1014.2
20260507193103 51 103 1.0 4.0 0.00 0.00 0.00 83 1014.1
20260507191542 52 103 1.0 3.0 0.00 0.00 0.00 82 1014.0
20260507190040 52 103 1.0 3.0 0.00 0.00 0.00 81 1014.1
20260507184544 53 103 0.0 2.0 0.00 0.00 0.00 80 1014.1
20260507183049 53 103 1.0 3.0 0.00 0.00 0.00 78 1014.2
20260507181543 54 126 0.0 1.0 0.00 0.00 0.00 79 1014.2
20260507180040 53 126 1.0 7.0 0.00 0.00 0.00 79 1014.3
20260507174546 53 120 5.0 9.0 0.00 0.00 0.00 78 1014.2
20260507173101 54 160 5.0 8.0 0.00 0.00 0.00 77 1014.2
20260507171546 54 128 4.0 9.0 0.00 0.00 0.00 79 1014.3
20260507170048 55 141 6.0 15.0 0.00 0.00 0.00 79 1014.3
20260507164548 55 157 8.0 13.0 0.00 0.00 0.00 78 1014.2
20260507163040 55 154 5.0 10.0 0.00 0.00 0.00 81 1014.3
20260507161553 55 145 6.0 9.0 0.00 0.00 0.00 79 1014.2
20260507160057 55 150 8.0 15.0 0.00 0.00 0.00 81 1014.3
20260507154546 57 143 6.0 10.0 0.00 0.00 0.00 75 1014.3
20260507153044 55 179 8.0 13.0 0.00 0.00 0.00 79 1014.4
20260507151540 55 157 7.0 11.0 0.00 0.00 0.00 78 1014.4
20260507150038 56 155 5.0 9.0 0.00 0.00 0.00 78 1014.3
20260507144548 55 186 3.0 6.0 0.00 0.00 0.00 78 1014.3
20260507143045 55 139 3.0 7.0 0.00 0.00 0.00 79 1014.4
20260507141549 55 191 3.0 6.0 0.00 0.00 0.00 78 1014.5
20260507140043 55 186 3.0 6.0 0.00 0.00 0.00 78 1014.8
20260507134544 55 161 3.0 6.0 0.00 0.00 0.00 80 1014.8
20260507133045 55 162 3.0 6.0 0.00 0.00 0.00 79 1014.8
20260507131545 55 140 3.0 6.0 0.00 0.00 0.00 79 1014.9
20260507130044 56 159 4.0 9.0 0.00 0.00 0.00 77 1015.0
20260507124543 57 187 5.0 8.0 0.00 0.00 0.00 78 1014.9
20260507123045 57 159 4.0 9.0 0.00 0.00 0.00 79 1014.9
20260507121541 56 137 4.0 9.0 0.00 0.00 0.00 76 1015.0
20260507120038 56 161 6.0 11.0 0.00 0.00 0.00 78 1014.9
20260507114543 56 194 5.0 10.0 0.00 0.00 0.00 79 1014.9
20260507113044 56 175 7.0 11.0 0.00 0.00 0.00 78 1014.9
20260507111545 56 168 7.0 13.0 0.00 0.00 0.00 79 1014.9
20260507110043 55 152 8.0 12.0 0.00 0.00 0.00 79 1014.9
20260507104541 54 144 8.0 14.0 0.00 0.00 0.00 81 1015.0
20260507103038 53 148 8.0 14.0 0.00 0.00 0.00 82 1015.0
20260507101538 54 159 8.0 15.0 0.00 0.00 0.00 83 1014.9
20260507100044 54 132 8.0 16.0 0.00 0.00 0.00 81 1015.0
20260507094544 54 134 9.0 18.0 0.00 0.00 0.00 82 1014.8
20260507093045 53 126 11.0 18.0 0.00 0.00 0.00 83 1014.7
20260507091540 53 142 12.0 17.0 0.00 0.00 0.00 83 1014.7
20260507090039 53 123 15.0 19.0 0.00 0.00 0.00 84 1014.7
20260507084541 53 142 10.0 19.0 0.00 0.00 0.00 84 1014.6
20260507083040 52 138 16.0 21.0 0.00 0.00 0.00 85 1014.5
20260507081543 52 144 10.0 17.0 0.00 0.00 0.00 84 1014.5
20260507080042 52 138 8.0 17.0 0.00 0.00 0.00 85 1014.5
20260507074542 51 117 8.0 20.0 0.00 0.00 0.00 86 1014.4
20260507073040 50 116 9.0 19.0 0.00 0.00 0.00 87 1014.4
20260507071537 49 146 8.0 16.0 0.00 0.00 0.00 87 1014.3
20260507070042 49 118 9.0 18.0 0.00 0.00 0.00 87 1014.1
20260507064545 49 110 5.0 16.0 0.00 0.00 0.00 86 1014.1
20260507063050 49 121 7.0 18.0 0.00 0.00 0.00 86 1014.1
20260507061543 49 92 8.0 19.0 0.00 0.00 0.00 86 1014.0
20260507060044 48 97 7.0 13.0 0.00 0.00 0.00 86 1014.0
20260507054542 48 105 5.0 15.0 0.00 0.00 0.00 85 1014.0
20260507053040 48 115 7.0 15.0 0.00 0.00 0.00 85 1014.1
20260507051539 48 56 4.0 11.0 0.00 0.00 0.00 85 1014.1